Tracking 19224 objects as of 22-Jul-2018
HD Live streaming from Space Station
objects crossing your sky now

FENGYUN 1C DEB

Track FENGYUN 1C DEB now!
10-day predictions


NORAD ID: 31786
Int'l Code: 1999-025CGM
Perigee: 827.5 km
Apogee: 991.4 km
Inclination: 97.7 °
Period: 103.0 minutes
Semi major axis: 7280 km
RCS: 0.0115 m2 (small)
Launch date: May 10, 1999
Source: People's Republic of China (PRC)
Launch site: Taiyaun Space Center, China (TSC)

Note: This is SATELLITE DEBRIS
aabbcc
Your satellite tracking list
Your tracking list is empty




NASA's NSSDC Master Catalog

Two Line Element Set (TLE):
1 31786U 99025CGM 18183.35591052  .00001333  00000-0  92030-3 0  9998
2 31786  97.6981 231.1923 0112549 240.6058 118.3835 13.97533233563197
Source of the keplerian elements: AFSPC